Private Wetterstation Wechselburg
Wetterdaten: Montag, 26.12.2011
Datum Zeit Temp. +2m Bodentemp. Temp.+5cm Temp. Wind Windchill X Diff Temp. Feuchte +2m Feuchte +5cm Sonnenschein Luftdruck Regen Wind Richtung Richtung Sonnenschein UV Taupunkt Windchill Windben
26.12.2011 00:00 5,8 C 10,1 C 5,7 C 5,7 C 5,4 C 0,0 C 84 % 87 % 0 % 1033,9 hPa 0,0 l/m 4,8 km/h (1 Bft) S-SO 157 0 min 0,0 UV-I 3,3 C 4,6 C 4,7 km/h (1 Bft)
26.12.2011 00:04 5,9 C 10,0 C 5,7 C 5,6 C 5,1 C 0,0 C 84 % 87 % 0 % 1033,9 hPa 0,0 l/m 6,0 km/h (2 Bft) S-SO 157 0 min 0,0 UV-I 3,4 C 3,8 C 12,4 km/h (3 Bft)
26.12.2011 00:09 6,0 C 10,1 C 5,9 C 5,6 C 4,9 C 0,0 C 84 % 87 % 0 % 1033,9 hPa 0,0 l/m 6,8 km/h (2 Bft) S-SO 157 0 min 0,0 UV-I 3,5 C 3,4 C 9,0 km/h (2 Bft)
26.12.2011 00:14 6,0 C 10,1 C 5,9 C 5,7 C 4,4 C 0,0 C 84 % 87 % 0 % 1033,9 hPa 0,0 l/m 8,7 km/h (2 Bft) W-SW 247 0 min 0,0 UV-I 3,5 C 2,2 C 15,9 km/h (3 Bft)
26.12.2011 00:19 6,1 C 10,1 C 5,9 C 5,5 C 4,4 C 0,0 C 84 % 87 % 0 % 1033,6 hPa 0,0 l/m 8,9 km/h (2 Bft) S 180 0 min 0,0 UV-I 3,6 C 2,2 C 10,1 km/h (2 Bft)
26.12.2011 00:25 6,0 C 10,1 C 5,9 C 5,6 C 4,8 C 0,0 C 84 % 87 % 0 % 1033,6 hPa 0,0 l/m 7,1 km/h (2 Bft) SW 225 0 min 0,0 UV-I 3,5 C 3,1 C 5,1 km/h (1 Bft)
26.12.2011 00:30 6,0 C 10,1 C 5,9 C 5,7 C 5,2 C 0,0 C 84 % 87 % 0 % 1033,6 hPa 0,0 l/m 5,8 km/h (2 Bft) W-SW 247 0 min 0,0 UV-I 3,5 C 4,0 C 16,3 km/h (3 Bft)
26.12.2011 00:35 6,0 C 10,1 C 5,9 C 5,8 C 5,4 C 0,0 C 84 % 87 % 0 % 1033,6 hPa 0,0 l/m 5,3 km/h (1 Bft) N-NO 22 0 min 0,0 UV-I 3,5 C 4,4 C 10,0 km/h (2 Bft)
26.12.2011 00:40 6,0 C 10,1 C 5,9 C 5,8 C 5,4 C 0,0 C 84 % 87 % 0 % 1033,9 hPa 0,0 l/m 5,3 km/h (1 Bft) S-SO 157 0 min 0,0 UV-I 3,5 C 4,4 C 4,8 km/h (1 Bft)
26.12.2011 00:45 6,0 C 10,1 C 5,9 C 5,8 C 5,5 C 0,0 C 84 % 87 % 0 % 1033,9 hPa 0,0 l/m 5,0 km/h (1 Bft) S 180 0 min 0,0 UV-I 3,5 C 4,7 C 5,6 km/h (1 Bft)
26.12.2011 00:50 6,1 C 10,1 C 5,9 C 5,9 C 5,5 C 0,0 C 84 % 87 % 0 % 1033,9 hPa 0,0 l/m 5,0 km/h (1 Bft) S-SO 157 0 min 0,0 UV-I 3,6 C 4,7 C 7,6 km/h (2 Bft)
26.12.2011 00:55 6,1 C 10,1 C 5,9 C 5,9 C 5,6 C 0,0 C 84 % 87 % 0 % 1033,9 hPa 0,0 l/m 5,3 km/h (1 Bft) O-SO 112 0 min 0,0 UV-I 3,6 C 4,7 C 17,1 km/h (3 Bft)
26.12.2011 01:00 6,1 C 10,1 C 6,0 C 5,8 C 5,2 C 0,0 C 84 % 87 % 0 % 1033,2 hPa 0,0 l/m 6,3 km/h (2 Bft) S-SO 157 0 min 0,0 UV-I 3,6 C 3,9 C 7,9 km/h (2 Bft)
26.12.2011 01:10 6,3 C 10,1 C 6,0 C 5,8 C 4,8 C 0,0 C 84 % 87 % 0 % 1033,2 hPa 0,0 l/m 7,6 km/h (2 Bft) N 0 0 min 0,0 UV-I 3,8 C 3,0 C 17,5 km/h (3 Bft)
26.12.2011 01:20 6,3 C 10,1 C 6,0 C 6,0 C 4,7 C 0,0 C 83 % 86 % 0 % 1033,0 hPa 0,0 l/m 9,0 km/h (2 Bft) S 180 0 min 0,0 UV-I 3,6 C 2,5 C 14,6 km/h (3 Bft)
26.12.2011 01:25 6,2 C 10,1 C 6,0 C 5,8 C 5,0 C 0,0 C 83 % 86 % 0 % 1033,0 hPa 0,0 l/m 7,6 km/h (2 Bft) NW 315 0 min 0,0 UV-I 3,5 C 3,2 C 5,0 km/h (1 Bft)
26.12.2011 01:30 6,3 C 10,1 C 6,1 C 6,0 C 5,3 C 0,0 C 83 % 86 % 0 % 1033,0 hPa 0,0 l/m 6,4 km/h (2 Bft) SO 135 0 min 0,0 UV-I 3,6 C 3,9 C 5,0 km/h (1 Bft)
26.12.2011 01:35 6,3 C 10,1 C 6,1 C 6,1 C 5,6 C 0,0 C 83 % 86 % 0 % 1033,0 hPa 0,0 l/m 5,5 km/h (1 Bft) W-SW 247 0 min 0,0 UV-I 3,6 C 4,6 C 5,3 km/h (1 Bft)
26.12.2011 01:40 6,3 C 10,1 C 6,1 C 6,1 C 5,8 C 0,0 C 83 % 86 % 0 % 1033,0 hPa 0,0 l/m 5,3 km/h (1 Bft) SW 225 0 min 0,0 UV-I 3,6 C 4,9 C 5,3 km/h (1 Bft)
26.12.2011 01:45 6,4 C 10,1 C 6,2 C 6,2 C 5,8 C 0,0 C 83 % 86 % 0 % 1033,0 hPa 0,0 l/m 5,3 km/h (1 Bft) SW 225 0 min 0,0 UV-I 3,7 C 4,9 C 5,5 km/h (1 Bft)
26.12.2011 01:50 6,4 C 10,1 C 6,3 C 6,2 C 5,9 C 0,0 C 83 % 86 % 0 % 1033,0 hPa 0,0 l/m 5,0 km/h (1 Bft) S-SO 157 0 min 0,0 UV-I 3,7 C 5,1 C 7,4 km/h (2 Bft)
26.12.2011 01:55 6,4 C 10,1 C 6,1 C 6,4 C 6,3 C 0,0 C 83 % 86 % 0 % 1033,0 hPa 0,0 l/m 4,0 km/h (1 Bft) SO 135 0 min 0,0 UV-I 3,7 C 6,3 C 2,9 km/h (1 Bft)
26.12.2011 02:00 6,4 C 10,1 C 6,1 C 6,2 C 5,8 C 0,0 C 83 % 86 % 0 % 1033,0 hPa 0,0 l/m 5,1 km/h (1 Bft) SW 225 0 min 0,0 UV-I 3,7 C 5,0 C 13,5 km/h (3 Bft)
26.12.2011 02:15 6,5 C 10,1 C 6,3 C 6,1 C 5,4 C 0,0 C 83 % 86 % 0 % 1033,0 hPa 0,0 l/m 6,9 km/h (2 Bft) SO 135 0 min 0,0 UV-I 3,8 C 3,9 C 10,8 km/h (2 Bft)
26.12.2011 02:17 6,5 C 10,1 C 6,3 C 6,1 C 5,4 C 0,0 C 83 % 86 % 0 % 1033,0 hPa 0,0 l/m 6,9 km/h (2 Bft) SO 135 0 min 0,0 UV-I 3,8 C 3,9 C 10,8 km/h (2 Bft)
26.12.2011 02:20 6,5 C 10,1 C 6,3 C 6,1 C 5,4 C 0,0 C 83 % 86 % 0 % 1033,8 hPa 0,0 l/m 6,9 km/h (2 Bft) SW 225 0 min 0,0 UV-I 3,8 C 3,9 C 14,5 km/h (3 Bft)
26.12.2011 02:25 6,4 C 10,2 C 6,1 C 6,2 C 5,2 C 0,0 C 83 % 87 % 0 % 1033,8 hPa 0,0 l/m 7,9 km/h (2 Bft) W 270 0 min 0,0 UV-I 3,7 C 3,4 C 9,7 km/h (2 Bft)
26.12.2011 02:30 6,5 C 10,2 C 6,2 C 6,2 C 5,1 C 0,0 C 83 % 87 % 0 % 1033,8 hPa 0,0 l/m 8,5 km/h (2 Bft) SW 225 0 min 0,0 UV-I 3,8 C 3,1 C 13,4 km/h (3 Bft)
26.12.2011 02:35 6,5 C 10,2 C 6,2 C 6,2 C 4,9 C 0,0 C 83 % 87 % 0 % 1033,8 hPa 0,0 l/m 9,2 km/h (2 Bft) S-SO 157 0 min 0,0 UV-I 3,8 C 2,7 C 18,7 km/h (3 Bft)
26.12.2011 02:40 6,5 C 10,2 C 6,3 C 6,0 C 4,9 C 0,0 C 83 % 87 % 0 % 1033,8 hPa 0,0 l/m 9,2 km/h (2 Bft) SW 225 0 min 0,0 UV-I 3,8 C 2,7 C 16,1 km/h (3 Bft)
26.12.2011 02:45 6,4 C 10,2 C 6,3 C 6,1 C 5,1 C 0,0 C 83 % 86 % 0 % 1033,8 hPa 0,0 l/m 8,5 km/h (2 Bft) SW 225 0 min 0,0 UV-I 3,7 C 3,1 C 11,3 km/h (2 Bft)
26.12.2011 02:50 6,4 C 10,2 C 6,3 C 6,2 C 5,2 C 0,0 C 83 % 86 % 0 % 1033,8 hPa 0,0 l/m 8,0 km/h (2 Bft) S 180 0 min 0,0 UV-I 3,7 C 3,4 C 12,1 km/h (2 Bft)
26.12.2011 02:55 6,4 C 10,2 C 6,3 C 6,1 C 5,4 C 0,0 C 83 % 87 % 0 % 1033,8 hPa 0,0 l/m 6,9 km/h (2 Bft) O-NO 67 0 min 0,0 UV-I 3,7 C 3,9 C 18,8 km/h (3 Bft)
26.12.2011 03:00 6,4 C 10,2 C 6,3 C 6,2 C 5,7 C 0,0 C 83 % 86 % 0 % 1033,9 hPa 0,0 l/m 6,1 km/h (2 Bft) O-SO 112 0 min 0,0 UV-I 3,7 C 4,5 C 12,2 km/h (2 Bft)
26.12.2011 03:10 6,4 C 10,2 C 6,3 C 6,2 C 5,7 C 0,0 C 83 % 86 % 0 % 1033,9 hPa 0,0 l/m 6,1 km/h (2 Bft) N 0 0 min 0,0 UV-I 3,7 C 4,5 C 13,0 km/h (3 Bft)
26.12.2011 03:20 6,4 C 10,2 C 6,2 C 6,0 C 5,2 C 0,0 C 83 % 86 % 0 % 1033,9 hPa 0,0 l/m 7,6 km/h (2 Bft) SO 135 0 min 0,0 UV-I 3,7 C 3,5 C 21,4 km/h (4 Bft)
26.12.2011 03:25 6,4 C 10,2 C 6,3 C 6,1 C 5,5 C 0,0 C 83 % 86 % 0 % 1033,9 hPa 0,0 l/m 6,6 km/h (2 Bft) SW 225 0 min 0,0 UV-I 3,7 C 4,1 C 23,5 km/h (4 Bft)
26.12.2011 03:30 6,5 C 10,2 C 6,3 C 6,1 C 5,4 C 0,0 C 83 % 86 % 0 % 1033,9 hPa 0,0 l/m 6,9 km/h (2 Bft) SW 225 0 min 0,0 UV-I 3,8 C 3,9 C 8,5 km/h (2 Bft)
26.12.2011 03:35 6,5 C 10,2 C 6,3 C 6,3 C 5,2 C 0,0 C 83 % 87 % 0 % 1033,9 hPa 0,0 l/m 7,9 km/h (2 Bft) W-SW 247 0 min 0,0 UV-I 3,8 C 3,4 C 11,6 km/h (2 Bft)
26.12.2011 03:40 6,5 C 10,2 C 6,3 C 6,2 C 4,8 C 0,0 C 83 % 87 % 0 % 1033,9 hPa 0,0 l/m 9,5 km/h (2 Bft) S 180 0 min 0,0 UV-I 3,8 C 2,5 C 17,2 km/h (3 Bft)
26.12.2011 03:45 6,7 C 10,2 C 6,3 C 6,1 C 4,8 C 0,0 C 83 % 86 % 0 % 1033,9 hPa 0,0 l/m 10,1 km/h (2 Bft) SW 225 0 min 0,0 UV-I 4,0 C 2,4 C 11,4 km/h (2 Bft)
26.12.2011 03:50 6,7 C 10,2 C 6,4 C 6,3 C 4,9 C 0,0 C 83 % 86 % 0 % 1033,9 hPa 0,0 l/m 10,0 km/h (2 Bft) W 270 0 min 0,0 UV-I 4,0 C 2,5 C 7,9 km/h (2 Bft)
26.12.2011 03:55 6,7 C 10,2 C 6,4 C 6,1 C 4,9 C 0,0 C 83 % 87 % 0 % 1033,9 hPa 0,0 l/m 10,1 km/h (2 Bft) SW 225 0 min 0,0 UV-I 4,0 C 2,5 C 9,5 km/h (2 Bft)
26.12.2011 04:00 6,7 C 10,2 C 6,3 C 6,3 C 4,8 C 0,0 C 83 % 87 % 0 % 1033,4 hPa 0,0 l/m 10,3 km/h (2 Bft) W-NW 292 0 min 0,0 UV-I 4,0 C 2,4 C 17,2 km/h (3 Bft)
26.12.2011 04:10 6,7 C 10,3 C 6,5 C 6,4 C 5,3 C 0,0 C 83 % 86 % 0 % 1033,4 hPa 0,0 l/m 8,7 km/h (2 Bft) N 0 0 min 0,0 UV-I 4,0 C 3,3 C 24,9 km/h (4 Bft)
26.12.2011 04:20 6,6 C 10,3 C 6,4 C 6,2 C 5,3 C 0,0 C 83 % 86 % 0 % 1033,9 hPa 0,0 l/m 8,0 km/h (2 Bft) W 270 0 min 0,0 UV-I 3,9 C 3,5 C 5,1 km/h (1 Bft)
26.12.2011 04:25 6,7 C 10,3 C 6,4 C 6,3 C 5,6 C 0,0 C 83 % 86 % 0 % 1033,9 hPa 0,0 l/m 7,1 km/h (2 Bft) S-SO 157 0 min 0,0 UV-I 4,0 C 4,1 C 5,1 km/h (1 Bft)
26.12.2011 04:30 6,7 C 10,3 C 6,4 C 6,4 C 5,8 C 0,0 C 83 % 86 % 0 % 1033,9 hPa 0,0 l/m 6,0 km/h (2 Bft) W 270 0 min 0,0 UV-I 4,0 C 4,6 C 5,0 km/h (1 Bft)
26.12.2011 04:35 6,7 C 10,3 C 6,4 C 6,5 C 6,1 C 0,0 C 83 % 86 % 0 % 1033,9 hPa 0,0 l/m 5,0 km/h (1 Bft) NW 315 0 min 0,0 UV-I 4,0 C 5,3 C 8,4 km/h (2 Bft)
26.12.2011 04:40 6,6 C 10,3 C 6,4 C 6,4 C 5,9 C 0,0 C 83 % 86 % 0 % 1033,5 hPa 0,0 l/m 5,6 km/h (1 Bft) W-SW 247 0 min 0,0 UV-I 3,9 C 4,9 C 15,0 km/h (3 Bft)
26.12.2011 04:45 6,6 C 10,3 C 6,3 C 6,3 C 5,7 C 0,0 C 84 % 86 % 0 % 1033,5 hPa 0,0 l/m 6,1 km/h (2 Bft) S 180 0 min 0,0 UV-I 4,1 C 4,5 C 10,8 km/h (2 Bft)
26.12.2011 04:50 6,7 C 10,3 C 6,4 C 6,3 C 5,6 C 0,0 C 83 % 86 % 0 % 1033,5 hPa 0,0 l/m 6,6 km/h (2 Bft) W 270 0 min 0,0 UV-I 4,0 C 4,2 C 5,1 km/h (1 Bft)
26.12.2011 04:55 6,6 C 10,3 C 6,4 C 6,4 C 5,2 C 0,0 C 83 % 87 % 0 % 1033,5 hPa 0,0 l/m 8,0 km/h (2 Bft) W-SW 247 0 min 0,0 UV-I 3,9 C 3,4 C 12,6 km/h (3 Bft)
26.12.2011 05:00 6,6 C 10,3 C 6,3 C 6,2 C 5,5 C 0,0 C 84 % 87 % 0 % 1033,5 hPa 0,0 l/m 6,9 km/h (2 Bft) SW 225 0 min 0,0 UV-I 4,1 C 4,0 C 8,0 km/h (2 Bft)
26.12.2011 05:10 6,6 C 10,3 C 6,4 C 6,2 C 5,5 C 0,0 C 84 % 87 % 0 % 1033,5 hPa 0,0 l/m 6,9 km/h (2 Bft) N 0 0 min 0,0 UV-I 4,1 C 4,0 C 7,1 km/h (2 Bft)
26.12.2011 05:20 6,7 C 10,3 C 6,4 C 6,4 C 5,8 C 0,0 C 84 % 87 % 0 % 1033,1 hPa 0,0 l/m 5,8 km/h (2 Bft) W 270 0 min 0,0 UV-I 4,2 C 4,7 C 10,5 km/h (2 Bft)
26.12.2011 05:25 6,6 C 10,3 C 6,4 C 6,3 C 5,8 C 0,0 C 84 % 87 % 0 % 1033,1 hPa 0,0 l/m 5,8 km/h (2 Bft) W-SW 247 0 min 0,0 UV-I 4,1 C 4,7 C 6,0 km/h (2 Bft)
26.12.2011 05:30 6,7 C 10,3 C 6,5 C 6,4 C 5,9 C 0,0 C 84 % 87 % 0 % 1033,1 hPa 0,0 l/m 5,5 km/h (1 Bft) W 270 0 min 0,0 UV-I 4,2 C 4,9 C 7,7 km/h (2 Bft)
26.12.2011 05:35 6,7 C 10,3 C 6,5 C 6,5 C 6,2 C 0,0 C 84 % 87 % 0 % 1033,1 hPa 0,0 l/m 4,8 km/h (1 Bft) W-SW 247 0 min 0,0 UV-I 4,2 C 5,5 C 12,1 km/h (2 Bft)
26.12.2011 05:40 6,6 C 10,3 C 6,4 C 6,4 C 6,1 C 0,0 C 84 % 87 % 0 % 1033,1 hPa 0,0 l/m 5,0 km/h (1 Bft) W 270 0 min 0,0 UV-I 4,1 C 5,3 C 6,0 km/h (2 Bft)
26.12.2011 05:45 6,7 C 10,3 C 6,5 C 6,4 C 5,8 C 0,0 C 84 % 87 % 0 % 1033,1 hPa 0,0 l/m 6,0 km/h (2 Bft) W-NW 292 0 min 0,0 UV-I 4,2 C 4,6 C 9,7 km/h (2 Bft)
26.12.2011 05:50 6,7 C 10,3 C 6,4 C 6,4 C 5,7 C 0,0 C 84 % 87 % 0 % 1033,1 hPa 0,0 l/m 6,3 km/h (2 Bft) S-SW 202 0 min 0,0 UV-I 4,2 C 4,4 C 14,2 km/h (3 Bft)
26.12.2011 05:55 6,7 C 10,3 C 6,4 C 6,4 C 5,9 C 0,0 C 84 % 87 % 0 % 1033,1 hPa 0,0 l/m 6,0 km/h (2 Bft) O-NO 67 0 min 0,0 UV-I 4,2 C 4,8 C 4,3 km/h (1 Bft)
26.12.2011 06:00 6,6 C 10,3 C 6,5 C 6,4 C 6,1 C 0,0 C 84 % 86 % 0 % 1033,1 hPa 0,0 l/m 5,3 km/h (1 Bft) W-NW 292 0 min 0,0 UV-I 4,1 C 5,2 C 5,0 km/h (1 Bft)
26.12.2011 06:11 6,7 C 10,3 C 6,4 C 6,4 C 5,7 C 0,0 C 84 % 87 % 0 % 1033,1 hPa 0,0 l/m 6,4 km/h (2 Bft) N 0 0 min 0,0 UV-I 4,2 C 4,4 C 8,5 km/h (2 Bft)
26.12.2011 06:20 6,7 C 10,4 C 6,4 C 6,4 C 5,9 C 0,0 C 84 % 87 % 0 % 1033,1 hPa 0,0 l/m 6,0 km/h (2 Bft) NO 45 0 min 0,0 UV-I 4,2 C 4,8 C 13,8 km/h (3 Bft)
26.12.2011 06:25 6,6 C 10,4 C 6,4 C 6,2 C 5,4 C 0,0 C 84 % 87 % 0 % 1033,1 hPa 0,0 l/m 7,6 km/h (2 Bft) W-SW 247 0 min 0,0 UV-I 4,1 C 3,7 C 17,4 km/h (3 Bft)
26.12.2011 06:30 6,7 C 10,4 C 6,4 C 6,3 C 5,4 C 0,0 C 84 % 87 % 0 % 1033,1 hPa 0,0 l/m 7,7 km/h (2 Bft) W-SW 247 0 min 0,0 UV-I 4,2 C 3,7 C 8,5 km/h (2 Bft)
26.12.2011 06:35 6,7 C 10,4 C 6,5 C 6,3 C 5,4 C 0,0 C 84 % 87 % 0 % 1033,1 hPa 0,0 l/m 8,5 km/h (2 Bft) SW 225 0 min 0,0 UV-I 4,2 C 3,5 C 15,0 km/h (3 Bft)
26.12.2011 06:40 6,7 C 10,4 C 6,5 C 6,3 C 5,6 C 0,0 C 84 % 87 % 0 % 1033,4 hPa 0,0 l/m 7,4 km/h (2 Bft) W 270 0 min 0,0 UV-I 4,2 C 4,0 C 2,9 km/h (1 Bft)
26.12.2011 06:45 6,8 C 10,4 C 6,5 C 6,6 C 6,2 C 0,0 C 84 % 87 % 0 % 1033,4 hPa 0,0 l/m 5,3 km/h (1 Bft) W 270 0 min 0,0 UV-I 4,3 C 5,3 C 5,8 km/h (2 Bft)
26.12.2011 06:50 6,8 C 10,4 C 6,5 C 6,7 C 6,5 C 0,0 C 84 % 86 % 0 % 1033,4 hPa 0,0 l/m 4,5 km/h (1 Bft) W 270 0 min 0,0 UV-I 4,3 C 6,5 C 10,3 km/h (2 Bft)
26.12.2011 06:55 6,8 C 10,4 C 6,6 C 6,6 C 6,3 C 0,0 C 83 % 86 % 0 % 1033,4 hPa 0,0 l/m 5,3 km/h (1 Bft) S 180 0 min 0,0 UV-I 4,1 C 5,5 C 7,1 km/h (2 Bft)
26.12.2011 07:00 6,8 C 10,4 C 6,6 C 6,6 C 6,1 C 0,0 C 83 % 86 % 0 % 1033,7 hPa 0,0 l/m 6,1 km/h (2 Bft) W 270 0 min 0,0 UV-I 4,1 C 5,0 C 9,0 km/h (2 Bft)
26.12.2011 07:04 6,8 C 10,4 C 6,6 C 6,6 C 6,1 C 0,0 C 83 % 86 % 0 % 1033,7 hPa 0,0 l/m 6,1 km/h (2 Bft) W-SW 247 0 min 0,0 UV-I 4,1 C 5,0 C 8,5 km/h (2 Bft)
26.12.2011 07:09 6,9 C 10,4 C 6,7 C 6,7 C 6,3 C 0,0 C 83 % 86 % 0 % 1033,7 hPa 0,0 l/m 5,3 km/h (1 Bft) W-SW 247 0 min 0,0 UV-I 4,2 C 5,5 C 4,3 km/h (1 Bft)
26.12.2011 07:14 6,8 C 10,4 C 6,7 C 6,6 C 6,3 C 0,0 C 83 % 86 % 0 % 1033,7 hPa 0,0 l/m 5,3 km/h (1 Bft) SW 225 0 min 0,0 UV-I 4,1 C 5,5 C 8,9 km/h (2 Bft)
26.12.2011 07:21 6,9 C 10,4 C 6,6 C 6,7 C 6,2 C 0,0 C 83 % 86 % 0 % 1034,1 hPa 0,0 l/m 5,8 km/h (2 Bft) S 180 0 min 0,0 UV-I 4,2 C 5,2 C 13,7 km/h (3 Bft)
26.12.2011 07:25 6,9 C 10,4 C 6,6 C 6,6 C 6,0 C 0,0 C 83 % 86 % 0 % 1034,1 hPa 0,0 l/m 6,9 km/h (2 Bft) W-SW 247 0 min 0,0 UV-I 4,2 C 4,6 C 10,0 km/h (2 Bft)
26.12.2011 07:30 6,9 C 10,4 C 6,7 C 6,6 C 5,9 C 0,0 C 83 % 86 % 0 % 1034,1 hPa 0,0 l/m 7,2 km/h (2 Bft) SW 225 0 min 0,0 UV-I 4,2 C 4,4 C 11,6 km/h (2 Bft)
26.12.2011 07:35 6,9 C 10,4 C 6,7 C 6,6 C 5,9 C 0,0 C 83 % 86 % 0 % 1034,1 hPa 0,0 l/m 7,1 km/h (2 Bft) W-SW 247 0 min 0,0 UV-I 4,2 C 4,4 C 13,7 km/h (3 Bft)
26.12.2011 07:40 7,0 C 10,4 C 6,7 C 6,6 C 5,9 C 0,0 C 83 % 86 % 0 % 1034,1 hPa 0,0 l/m 7,2 km/h (2 Bft) S 180 0 min 0,0 UV-I 4,3 C 4,4 C 8,9 km/h (2 Bft)
26.12.2011 07:45 7,1 C 10,4 C 6,7 C 6,8 C 5,7 C 0,0 C 83 % 86 % 0 % 1034,1 hPa 0,0 l/m 8,0 km/h (2 Bft) S 180 0 min 0,0 UV-I 4,4 C 4,0 C 6,8 km/h (2 Bft)
26.12.2011 07:50 7,1 C 10,4 C 6,7 C 6,7 C 5,9 C 0,0 C 83 % 86 % 0 % 1034,1 hPa 0,0 l/m 7,2 km/h (2 Bft) W-NW 292 0 min 0,0 UV-I 4,4 C 4,4 C 14,6 km/h (3 Bft)
26.12.2011 07:55 7,1 C 10,4 C 6,7 C 6,8 C 6,3 C 0,0 C 83 % 86 % 0 % 1034,1 hPa 0,0 l/m 5,8 km/h (2 Bft) W-SW 247 0 min 0,0 UV-I 4,4 C 5,3 C 13,2 km/h (3 Bft)
26.12.2011 08:00 7,1 C 10,4 C 6,7 C 6,8 C 6,2 C 0,0 C 83 % 86 % 0 % 1033,7 hPa 0,0 l/m 6,3 km/h (2 Bft) W-SW 247 0 min 0,0 UV-I 4,4 C 5,0 C 13,7 km/h (3 Bft)
26.12.2011 08:04 7,0 C 10,4 C 6,7 C 6,7 C 6,1 C 0,0 C 83 % 86 % 0 % 1033,7 hPa 0,0 l/m 6,4 km/h (2 Bft) W-SW 247 0 min 0,0 UV-I 4,3 C 4,9 C 7,7 km/h (2 Bft)
26.12.2011 08:09 7,1 C 10,4 C 6,8 C 6,7 C 5,9 C 0,0 C 83 % 86 % 0 % 1033,7 hPa 0,0 l/m 7,2 km/h (2 Bft) W 270 0 min 0,0 UV-I 4,4 C 4,4 C 11,3 km/h (2 Bft)
26.12.2011 08:14 7,1 C 10,4 C 6,8 C 6,8 C 5,6 C 0,0 C 83 % 86 % 0 % 1033,7 hPa 0,0 l/m 8,7 km/h (2 Bft) SW 225 0 min 0,0 UV-I 4,4 C 3,7 C 19,3 km/h (3 Bft)
26.12.2011 08:19 7,1 C 10,4 C 6,9 C 6,6 C 5,6 C 0,0 C 83 % 86 % 0 % 1034,2 hPa 0,0 l/m 9,2 km/h (2 Bft) W 270 0 min 0,0 UV-I 4,4 C 3,6 C 15,9 km/h (3 Bft)
26.12.2011 08:25 7,0 C 10,4 C 6,8 C 6,7 C 5,7 C 0,0 C 83 % 86 % 0 % 1034,2 hPa 0,0 l/m 8,5 km/h (2 Bft) SW 225 0 min 0,0 UV-I 4,3 C 3,8 C 9,3 km/h (2 Bft)
26.12.2011 08:30 7,1 C 10,4 C 6,9 C 6,8 C 5,8 C 0,0 C 83 % 86 % 0 % 1034,2 hPa 0,0 l/m 8,0 km/h (2 Bft) W 270 0 min 0,0 UV-I 4,4 C 4,1 C 14,8 km/h (3 Bft)
26.12.2011 08:35 7,1 C 10,5 C 6,9 C 6,7 C 5,9 C 0,0 C 83 % 86 % 0 % 1034,2 hPa 0,0 l/m 7,6 km/h (2 Bft) W-SW 247 0 min 0,0 UV-I 4,4 C 4,3 C 9,8 km/h (2 Bft)
26.12.2011 08:40 7,1 C 10,5 C 6,9 C 6,8 C 6,2 C 0,0 C 83 % 86 % 0 % 1034,2 hPa 0,0 l/m 6,4 km/h (2 Bft) W-SW 247 0 min 0,0 UV-I 4,4 C 5,0 C 10,9 km/h (2 Bft)
26.12.2011 08:45 7,1 C 10,5 C 6,8 C 6,8 C 6,2 C 0,0 C 83 % 86 % 0 % 1034,2 hPa 0,0 l/m 7,1 km/h (2 Bft) W 270 0 min 0,0 UV-I 4,4 C 4,8 C 9,7 km/h (2 Bft)
26.12.2011 08:50 7,1 C 10,5 C 6,9 C 6,9 C 6,0 C 0,0 C 83 % 86 % 0 % 1034,2 hPa 0,0 l/m 7,7 km/h (2 Bft) W-SW 247 0 min 0,0 UV-I 4,4 C 4,4 C 11,1 km/h (2 Bft)
26.12.2011 08:55 7,1 C 10,5 C 6,8 C 6,7 C 6,0 C 0,0 C 83 % 86 % 0 % 1034,2 hPa 0,0 l/m 7,6 km/h (2 Bft) N-NW 337 0 min 0,0 UV-I 4,4 C 4,4 C 7,4 km/h (2 Bft)
26.12.2011 09:00 7,1 C 10,5 C 6,8 C 6,8 C 6,2 C 0,0 C 83 % 86 % 0 % 1034,8 hPa 0,0 l/m 7,6 km/h (2 Bft) SW 225 0 min 0,0 UV-I 4,4 C 4,6 C 5,5 km/h (1 Bft)
26.12.2011 09:04 7,2 C 10,5 C 6,8 C 6,8 C 6,0 C 0,0 C 83 % 86 % 0 % 1034,8 hPa 0,0 l/m 7,6 km/h (2 Bft) W-SW 247 0 min 0,0 UV-I 4,5 C 4,4 C 5,5 km/h (1 Bft)
26.12.2011 09:09 7,2 C 10,5 C 6,9 C 6,9 C 5,9 C 0,0 C 83 % 86 % 0 % 1034,8 hPa 0,0 l/m 8,2 km/h (2 Bft) SO 135 0 min 0,0 UV-I 4,5 C 4,1 C 10,6 km/h (2 Bft)
26.12.2011 09:14 7,2 C 10,5 C 6,9 C 6,9 C 5,8 C 0,0 C 83 % 86 % 0 % 1034,8 hPa 0,0 l/m 8,4 km/h (2 Bft) SW 225 0 min 0,0 UV-I 4,5 C 4,0 C 16,6 km/h (3 Bft)
26.12.2011 09:21 7,2 C 10,5 C 6,9 C 6,9 C 5,9 C 0,0 C 83 % 86 % 0 % 1034,4 hPa 0,0 l/m 8,5 km/h (2 Bft) W-SW 247 0 min 0,0 UV-I 4,5 C 4,1 C 11,3 km/h (2 Bft)
26.12.2011 09:25 7,3 C 10,5 C 6,9 C 7,0 C 5,7 C 0,0 C 83 % 86 % 0 % 1034,4 hPa 0,0 l/m 9,7 km/h (2 Bft) W 270 0 min 0,0 UV-I 4,6 C 3,6 C 9,2 km/h (2 Bft)
26.12.2011 09:30 7,3 C 10,5 C 6,9 C 7,0 C 5,8 C 0,0 C 83 % 86 % 0 % 1034,4 hPa 0,0 l/m 9,2 km/h (2 Bft) W-SW 247 0 min 0,0 UV-I 4,6 C 3,8 C 7,1 km/h (2 Bft)
26.12.2011 09:35 7,3 C 10,5 C 7,0 C 7,0 C 6,1 C 0,0 C 83 % 86 % 0 % 1034,4 hPa 0,0 l/m 8,0 km/h (2 Bft) W 270 0 min 0,0 UV-I 4,6 C 4,4 C 9,2 km/h (2 Bft)
26.12.2011 09:40 7,2 C 10,5 C 6,9 C 6,9 C 6,3 C 0,0 C 83 % 86 % 0 % 1034,4 hPa 0,0 l/m 7,6 km/h (2 Bft) SW 225 0 min 0,0 UV-I 4,5 C 4,8 C 9,2 km/h (2 Bft)
26.12.2011 09:45 7,3 C 10,5 C 7,0 C 7,0 C 6,3 C 0,0 C 83 % 86 % 0 % 1034,4 hPa 0,0 l/m 7,6 km/h (2 Bft) SW 225 0 min 1,7 UV-I 4,6 C 4,8 C 6,4 km/h (2 Bft)
26.12.2011 09:50 7,3 C 10,5 C 7,1 C 7,0 C 6,3 C 0,0 C 83 % 86 % 0 % 1034,4 hPa 0,0 l/m 8,0 km/h (2 Bft) W-SW 247 0 min 0,0 UV-I 4,6 C 4,7 C 10,8 km/h (2 Bft)
26.12.2011 09:55 7,3 C 10,5 C 7,1 C 7,1 C 6,6 C 0,0 C 83 % 86 % 0 % 1034,4 hPa 0,0 l/m 6,8 km/h (2 Bft) S 180 0 min 0,0 UV-I 4,6 C 5,3 C 3,7 km/h (1 Bft)
26.12.2011 10:00 7,3 C 10,5 C 7,1 C 7,1 C 6,8 C 0,0 C 83 % 86 % 0 % 1034,4 hPa 0,0 l/m 6,0 km/h (2 Bft) S-SW 202 0 min 0,0 UV-I 4,6 C 5,8 C 10,5 km/h (2 Bft)
26.12.2011 10:04 7,5 C 10,5 C 7,1 C 7,3 C 6,8 C 0,0 C 83 % 86 % 0 % 1034,4 hPa 0,0 l/m 6,9 km/h (2 Bft) S-SW 202 0 min 1,7 UV-I 4,8 C 5,5 C 12,2 km/h (2 Bft)
26.12.2011 10:09 7,5 C 10,5 C 7,2 C 7,4 C 6,5 C 0,0 C 83 % 86 % 0 % 1034,4 hPa 0,0 l/m 8,0 km/h (2 Bft) O-NO 67 0 min 0,0 UV-I 4,8 C 4,9 C 3,9 km/h (1 Bft)
26.12.2011 10:14 7,5 C 10,5 C 7,3 C 7,3 C 6,4 C 0,0 C 82 % 86 % 0 % 1034,4 hPa 0,0 l/m 9,2 km/h (2 Bft) NW 315 0 min 0,0 UV-I 4,6 C 4,5 C 16,1 km/h (3 Bft)
26.12.2011 10:19 7,5 C 10,5 C 7,2 C 7,3 C 6,6 C 0,0 C 82 % 86 % 0 % 1035,4 hPa 0,0 l/m 8,4 km/h (2 Bft) SW 225 0 min 0,0 UV-I 4,6 C 4,9 C 7,9 km/h (2 Bft)
26.12.2011 10:20 7,5 C 10,5 C 7,2 C 7,2 C 6,6 C 0,0 C 82 % 86 % 0 % 1035,4 hPa 0,0 l/m 8,4 km/h (2 Bft) SW 225 0 min 0,0 UV-I 4,6 C 4,9 C 7,9 km/h (2 Bft)
26.12.2011 10:25 7,6 C 10,5 C 7,3 C 7,5 C 6,8 C 0,0 C 82 % 86 % 0 % 1035,4 hPa 0,0 l/m 8,4 km/h (2 Bft) S-SW 202 0 min 0,0 UV-I 4,7 C 5,2 C 7,7 km/h (2 Bft)
26.12.2011 10:30 7,7 C 10,5 C 7,5 C 7,5 C 7,1 C 0,0 C 82 % 86 % 0 % 1035,4 hPa 0,0 l/m 7,4 km/h (2 Bft) SW 225 0 min 0,0 UV-I 4,8 C 5,7 C 7,1 km/h (2 Bft)
26.12.2011 10:35 7,6 C 10,5 C 7,4 C 7,5 C 7,3 C 0,0 C 82 % 85 % 0 % 1035,4 hPa 0,0 l/m 6,4 km/h (2 Bft) W-SW 247 0 min 0,0 UV-I 4,7 C 6,3 C 11,3 km/h (2 Bft)
26.12.2011 10:40 7,7 C 10,5 C 7,5 C 7,5 C 7,2 C 0,0 C 82 % 85 % 0 % 1035,6 hPa 0,0 l/m 7,2 km/h (2 Bft) S 180 0 min 0,0 UV-I 4,8 C 5,9 C 5,3 km/h (1 Bft)
26.12.2011 10:45 7,8 C 10,5 C 7,6 C 7,6 C 7,3 C 0,0 C 82 % 85 % 0 % 1035,6 hPa 0,0 l/m 7,1 km/h (2 Bft) S 180 0 min 0,0 UV-I 4,9 C 6,1 C 11,6 km/h (2 Bft)
26.12.2011 10:50 7,9 C 10,5 C 7,7 C 7,7 C 7,3 C 0,0 C 82 % 85 % 0 % 1035,6 hPa 0,0 l/m 7,2 km/h (2 Bft) W-SW 247 0 min 0,0 UV-I 5,0 C 6,0 C 9,8 km/h (2 Bft)
26.12.2011 10:55 7,9 C 10,6 C 7,7 C 7,7 C 7,2 C 0,0 C 82 % 85 % 0 % 1035,6 hPa 0,0 l/m 7,6 km/h (2 Bft) S-SO 157 0 min 0,0 UV-I 5,0 C 5,8 C 16,1 km/h (3 Bft)
26.12.2011 11:00 7,8 C 10,6 C 7,7 C 7,7 C 7,1 C 0,0 C 82 % 85 % 0 % 1035,4 hPa 0,0 l/m 8,4 km/h (2 Bft) SW 225 0 min 0,0 UV-I 4,9 C 5,5 C 17,4 km/h (3 Bft)
26.12.2011 11:10 7,9 C 10,6 C 7,6 C 7,6 C 7,1 C 0,0 C 82 % 85 % 0 % 1035,4 hPa 0,0 l/m 8,7 km/h (2 Bft) N 0 0 min 0,0 UV-I 5,0 C 5,4 C 10,9 km/h (2 Bft)
26.12.2011 11:25 8,1 C 10,6 C 7,7 C 7,9 C 7,5 C 0,0 C 82 % 85 % 0 % 1035,7 hPa 0,0 l/m 6,9 km/h (2 Bft) W 270 0 min 0,0 UV-I 5,2 C 6,3 C 8,4 km/h (2 Bft)
26.12.2011 11:30 8,1 C 10,6 C 7,8 C 7,9 C 7,5 C 0,0 C 81 % 85 % 0 % 1035,7 hPa 0,0 l/m 6,8 km/h (2 Bft) NW 315 0 min 0,0 UV-I 5,0 C 6,4 C 11,9 km/h (2 Bft)
26.12.2011 11:35 8,0 C 10,6 C 7,9 C 7,9 C 7,6 C 0,0 C 82 % 85 % 0 % 1035,7 hPa 0,0 l/m 6,4 km/h (2 Bft) W-SW 247 0 min 0,0 UV-I 5,1 C 6,6 C 11,1 km/h (2 Bft)
26.12.2011 11:40 8,0 C 10,6 C 7,9 C 7,8 C 7,5 C 0,0 C 82 % 85 % 0 % 1035,6 hPa 0,0 l/m 6,9 km/h (2 Bft) S-SO 157 0 min 0,0 UV-I 5,1 C 6,3 C 6,6 km/h (2 Bft)
26.12.2011 11:45 8,0 C 10,6 C 7,9 C 7,9 C 7,7 C 0,0 C 82 % 85 % 0 % 1035,6 hPa 0,0 l/m 6,8 km/h (2 Bft) S-SW 202 0 min 0,0 UV-I 5,1 C 6,6 C 16,7 km/h (3 Bft)
26.12.2011 11:50 8,0 C 10,6 C 7,9 C 7,9 C 7,7 C 0,0 C 82 % 85 % 0 % 1035,6 hPa 0,0 l/m 6,3 km/h (2 Bft) SO 135 0 min 0,0 UV-I 5,1 C 6,7 C 6,0 km/h (2 Bft)
26.12.2011 11:55 8,0 C 10,6 C 7,8 C 7,9 C 7,7 C 0,0 C 82 % 85 % 0 % 1035,6 hPa 0,0 l/m 6,0 km/h (2 Bft) SO 135 0 min 0,0 UV-I 5,1 C 6,8 C 14,6 km/h (3 Bft)
26.12.2011 12:00 8,1 C 10,6 C 7,9 C 8,0 C 7,9 C 0,0 C 82 % 85 % 0 % 1035,6 hPa 0,0 l/m 5,5 km/h (1 Bft) W 270 0 min 0,0 UV-I 5,2 C 7,2 C 9,8 km/h (2 Bft)
26.12.2011 12:15 8,2 C 10,7 C 7,9 C 8,1 C 7,4 C 0,0 C 81 % 85 % 0 % 1035,6 hPa 0,0 l/m 8,5 km/h (2 Bft) W-SW 247 0 min 0,0 UV-I 5,1 C 5,8 C 10,6 km/h (2 Bft)
26.12.2011 12:18 8,2 C 10,7 C 7,9 C 7,3 C 7,4 C 0,0 C 81 % 85 % 0 % 1035,6 hPa 0,0 l/m 8,5 km/h (2 Bft) W-SW 247 0 min 0,0 UV-I 5,1 C 5,8 C 10,6 km/h (2 Bft)
26.12.2011 12:29 8,3 C 10,7 C 8,0 C 8,2 C 7,7 C 0,0 C 81 % 84 % 0 % 1035,4 hPa 0,0 l/m 7,7 km/h (2 Bft) W-SW 247 0 min 0,0 UV-I 5,2 C 6,4 C 8,2 km/h (2 Bft)
26.12.2011 12:30 8,3 C 10,7 C 8,0 C 8,1 C 7,7 C 0,0 C 81 % 84 % 0 % 1035,4 hPa 0,0 l/m 7,7 km/h (2 Bft) W-SW 247 0 min 0,0 UV-I 5,2 C 6,4 C 8,2 km/h (2 Bft)
26.12.2011 12:31 8,3 C 10,7 C 8,0 C 8,1 C 7,7 C 0,0 C 81 % 84 % 0 % 1035,4 hPa 0,0 l/m 7,7 km/h (2 Bft) W-SW 247 0 min 0,0 UV-I 5,2 C 6,4 C 8,2 km/h (2 Bft)
26.12.2011 12:32 8,3 C 10,7 C 8,0 C 8,1 C 7,7 C 0,0 C 81 % 84 % 0 % 1035,4 hPa 0,0 l/m 7,7 km/h (2 Bft) W-SW 247 0 min 0,0 UV-I 5,2 C 6,4 C 8,2 km/h (2 Bft)
26.12.2011 12:33 8,3 C 10,7 C 8,0 C 8,1 C 7,7 C 0,0 C 81 % 84 % 0 % 1035,4 hPa 0,0 l/m 7,7 km/h (2 Bft) W-SW 247 0 min 0,0 UV-I 5,2 C 6,4 C 8,2 km/h (2 Bft)
26.12.2011 12:34 8,3 C 10,7 C 8,1 C 7,4 C 7,8 C 0,0 C 81 % 84 % 0 % 1035,4 hPa 0,0 l/m 8,2 km/h (2 Bft) W 270 0 min 0,0 UV-I 5,2 C 6,4 C 12,1 km/h (2 Bft)
26.12.2011 12:37 8,3 C 10,7 C 8,1 C 8,1 C 7,8 C 0,0 C 81 % 84 % 0 % 1035,4 hPa 0,0 l/m 8,2 km/h (2 Bft) W 270 0 min 0,0 UV-I 5,2 C 6,4 C 12,1 km/h (2 Bft)
26.12.2011 12:40 8,3 C 10,7 C 8,1 C 8,1 C 7,8 C 0,0 C 81 % 84 % 0 % 1035,4 hPa 0,0 l/m 8,5 km/h (2 Bft) W-SW 247 0 min 0,0 UV-I 5,2 C 6,3 C 17,2 km/h (3 Bft)
26.12.2011 12:45 8,4 C 10,7 C 8,2 C 8,3 C 8,1 C 0,0 C 81 % 84 % 0 % 1035,4 hPa 0,0 l/m 7,2 km/h (2 Bft) W-SW 247 0 min 0,0 UV-I 5,3 C 7,0 C 7,1 km/h (2 Bft)
26.12.2011 12:50 8,5 C 10,7 C 8,1 C 8,4 C 8,1 C 0,0 C 81 % 84 % 0 % 1035,4 hPa 0,0 l/m 7,2 km/h (2 Bft) SW 225 0 min 0,0 UV-I 5,4 C 7,0 C 4,0 km/h (1 Bft)
26.12.2011 12:55 8,4 C 10,6 C 8,3 C 8,4 C 8,4 C 0,0 C 81 % 84 % 0 % 1035,4 hPa 0,0 l/m 6,9 km/h (2 Bft) SW 225 0 min 0,0 UV-I 5,3 C 7,4 C 11,9 km/h (2 Bft)
26.12.2011 13:00 8,5 C 10,6 C 8,4 C 8,5 C 8,4 C 0,0 C 81 % 84 % 0 % 1035,4 hPa 0,0 l/m 7,4 km/h (2 Bft) S-SO 157 0 min 0,0 UV-I 5,4 C 7,3 C 18,3 km/h (3 Bft)
26.12.2011 13:04 8,5 C 10,6 C 8,5 C 7,6 C 8,3 C 0,0 C 81 % 84 % 0 % 1035,4 hPa 0,0 l/m 7,9 km/h (2 Bft) SW 225 0 min 0,0 UV-I 5,4 C 7,0 C 18,8 km/h (3 Bft)
26.12.2011 13:09 8,6 C 10,6 C 8,4 C 8,5 C 8,3 C 0,0 C 81 % 84 % 0 % 1035,4 hPa 0,0 l/m 8,0 km/h (2 Bft) SW 225 0 min 0,0 UV-I 5,5 C 7,0 C 16,1 km/h (3 Bft)
26.12.2011 13:14 8,5 C 10,6 C 8,5 C 8,5 C 7,9 C 0,0 C 81 % 84 % 0 % 1035,4 hPa 0,0 l/m 9,0 km/h (2 Bft) W-SW 247 0 min 0,0 UV-I 5,4 C 6,3 C 7,1 km/h (2 Bft)
26.12.2011 13:21 8,6 C 10,6 C 8,5 C 8,4 C 7,9 C 0,0 C 81 % 84 % 0 % 1035,4 hPa 0,0 l/m 9,3 km/h (2 Bft) W-SW 247 0 min 0,0 UV-I 5,5 C 6,3 C 6,8 km/h (2 Bft)
26.12.2011 13:25 8,7 C 10,7 C 8,4 C 8,6 C 8,2 C 0,0 C 81 % 84 % 0 % 1035,4 hPa 0,0 l/m 8,0 km/h (2 Bft) S-SW 202 0 min 0,0 UV-I 5,6 C 6,9 C 8,0 km/h (2 Bft)
26.12.2011 13:30 8,7 C 10,7 C 8,4 C 8,6 C 8,4 C 0,0 C 81 % 84 % 0 % 1035,4 hPa 0,0 l/m 6,9 km/h (2 Bft) W 270 0 min 0,0 UV-I 5,6 C 7,4 C 11,4 km/h (2 Bft)
26.12.2011 13:35 8,6 C 10,7 C 8,4 C 8,5 C 8,3 C 0,0 C 81 % 84 % 0 % 1035,4 hPa 0,0 l/m 7,2 km/h (2 Bft) S-SW 202 0 min 0,0 UV-I 5,5 C 7,2 C 9,2 km/h (2 Bft)
26.12.2011 13:40 8,6 C 10,7 C 8,5 C 8,5 C 8,4 C 0,0 C 81 % 84 % 0 % 1035,4 hPa 0,0 l/m 7,2 km/h (2 Bft) SW 225 0 min 0,0 UV-I 5,5 C 7,3 C 6,1 km/h (2 Bft)
26.12.2011 13:45 8,7 C 10,7 C 8,5 C 9,1 C 9,1 C 0,4 C 81 % 84 % 11 % 1035,4 hPa 0,0 l/m 5,3 km/h (1 Bft) N 360 0 min 0,0 UV-I 5,6 C 8,6 C 4,0 km/h (1 Bft)
26.12.2011 13:50 8,7 C 10,7 C 8,5 C 9,1 C 9,1 C 0,4 C 81 % 84 % 11 % 1035,4 hPa 0,0 l/m 5,5 km/h (1 Bft) SW 225 0 min 0,0 UV-I 5,6 C 8,6 C 11,1 km/h (2 Bft)
26.12.2011 13:55 8,7 C 10,7 C 8,5 C 8,8 C 8,8 C 0,1 C 81 % 84 % 3 % 1035,4 hPa 0,0 l/m 5,8 km/h (2 Bft) SW 225 0 min 0,0 UV-I 5,6 C 8,1 C 8,4 km/h (2 Bft)
26.12.2011 14:00 8,7 C 10,7 C 8,5 C 8,9 C 8,9 C 0,2 C 81 % 84 % 5 % 1035,4 hPa 0,0 l/m 5,5 km/h (1 Bft) SW 225 0 min 0,0 UV-I 5,6 C 8,4 C 14,8 km/h (3 Bft)
26.12.2011 14:15 8,7 C 10,7 C 8,7 C 8,7 C 8,7 C 0,0 C 81 % 84 % 0 % 1035,4 hPa 0,0 l/m 6,1 km/h (2 Bft) S 180 0 min 0,0 UV-I 5,6 C 7,9 C 6,4 km/h (2 Bft)
26.12.2011 14:18 8,7 C 10,7 C 8,7 C 8,7 C 8,7 C 0,0 C 81 % 84 % 0 % 1035,4 hPa 0,0 l/m 6,1 km/h (2 Bft) S 180 0 min 0,0 UV-I 5,6 C 7,9 C 6,4 km/h (2 Bft)
26.12.2011 14:29 8,7 C 10,8 C 8,5 C 8,8 C 8,8 C 0,1 C 81 % 84 % 3 % 1035,4 hPa 0,0 l/m 5,5 km/h (1 Bft) S-SW 202 0 min 0,0 UV-I 5,6 C 8,2 C 8,2 km/h (2 Bft)
26.12.2011 14:30 8,7 C 10,8 C 8,5 C 8,8 C 8,8 C 0,1 C 81 % 84 % 3 % 1035,4 hPa 0,0 l/m 5,5 km/h (1 Bft) S-SW 202 0 min 0,0 UV-I 5,6 C 8,2 C 8,2 km/h (2 Bft)
26.12.2011 14:31 8,7 C 10,8 C 8,5 C 8,8 C 8,8 C 0,1 C 81 % 84 % 3 % 1035,4 hPa 0,0 l/m 5,5 km/h (1 Bft) S-SW 202 0 min 0,0 UV-I 5,6 C 8,2 C 8,2 km/h (2 Bft)
26.12.2011 14:32 8,7 C 10,8 C 8,5 C 8,8 C 8,8 C 0,1 C 81 % 84 % 3 % 1035,4 hPa 0,0 l/m 5,5 km/h (1 Bft) S-SW 202 0 min 0,0 UV-I 5,6 C 8,2 C 8,2 km/h (2 Bft)
26.12.2011 14:33 8,7 C 10,8 C 8,5 C 8,8 C 8,8 C 0,1 C 81 % 84 % 3 % 1035,4 hPa 0,0 l/m 5,5 km/h (1 Bft) S-SW 202 0 min 0,0 UV-I 5,6 C 8,2 C 8,2 km/h (2 Bft)
26.12.2011 14:34 8,8 C 10,8 C 8,5 C 8,9 C 8,9 C 0,1 C 81 % 84 % 3 % 1035,4 hPa 0,0 l/m 5,1 km/h (1 Bft) NW 315 0 min 0,0 UV-I 5,7 C 8,5 C 4,8 km/h (1 Bft)
26.12.2011 14:37 8,8 C 10,8 C 8,5 C 8,9 C 8,9 C 0,1 C 81 % 84 % 3 % 1035,4 hPa 0,0 l/m 5,1 km/h (1 Bft) NW 315 0 min 0,0 UV-I 5,7 C 8,5 C 4,8 km/h (1 Bft)
26.12.2011 14:40 8,7 C 10,8 C 8,6 C 9,0 C 9,0 C 0,3 C 81 % 84 % 8 % 1035,4 hPa 0,0 l/m 4,7 km/h (1 Bft) W-SW 247 0 min 0,0 UV-I 5,6 C 8,7 C 9,3 km/h (2 Bft)
26.12.2011 14:45 8,7 C 10,8 C 8,5 C 8,8 C 8,8 C 0,1 C 82 % 85 % 3 % 1035,4 hPa 0,0 l/m 5,1 km/h (1 Bft) W-SW 247 0 min 0,0 UV-I 5,8 C 8,4 C 6,6 km/h (2 Bft)
26.12.2011 14:50 8,7 C 10,8 C 8,5 C 8,8 C 8,8 C 0,1 C 82 % 85 % 3 % 1035,4 hPa 0,0 l/m 5,3 km/h (1 Bft) W-SW 247 0 min 0,0 UV-I 5,8 C 8,3 C 10,5 km/h (2 Bft)
26.12.2011 14:55 8,7 C 10,8 C 8,4 C 8,8 C 8,8 C 0,1 C 82 % 85 % 3 % 1035,4 hPa 0,0 l/m 4,8 km/h (1 Bft) W-SW 247 0 min 0,0 UV-I 5,8 C 8,5 C 6,8 km/h (2 Bft)
26.12.2011 15:00 8,7 C 10,8 C 8,4 C 8,7 C 8,7 C 0,0 C 82 % 85 % 0 % 1035,4 hPa 0,0 l/m 5,0 km/h (1 Bft) W-SW 247 0 min 0,0 UV-I 5,8 C 8,3 C 7,4 km/h (2 Bft)
26.12.2011 15:04 8,7 C 10,8 C 8,5 C 8,7 C 8,7 C 0,0 C 82 % 85 % 0 % 1035,4 hPa 0,0 l/m 5,1 km/h (1 Bft) N 360 0 min 0,0 UV-I 5,8 C 8,2 C 2,3 km/h (1 Bft)
26.12.2011 15:09 8,6 C 10,8 C 8,5 C 8,8 C 8,8 C 0,2 C 82 % 85 % 5 % 1035,4 hPa 0,0 l/m 4,7 km/h (1 Bft) SW 225 0 min 0,0 UV-I 5,7 C 8,5 C 4,5 km/h (1 Bft)
26.12.2011 15:14 8,7 C 11,0 C 8,4 C 8,8 C 8,8 C 0,1 C 82 % 85 % 3 % 1035,4 hPa 0,0 l/m 4,5 km/h (1 Bft) N 360 0 min 0,0 UV-I 5,8 C 8,8 C 2,7 km/h (1 Bft)
26.12.2011 15:20 8,7 C 11,0 C 8,4 C 8,9 C 8,9 C 0,2 C 82 % 85 % 5 % 1035,8 hPa 0,0 l/m 4,2 km/h (1 Bft) W-SW 247 0 min 0,0 UV-I 5,8 C 8,9 C 3,9 km/h (1 Bft)
26.12.2011 15:25 8,7 C 11,0 C 8,4 C 8,9 C 8,9 C 0,2 C 83 % 85 % 5 % 1035,8 hPa 0,0 l/m 2,7 km/h (1 Bft) S 180 0 min 0,0 UV-I 6,0 C 8,9 C 3,9 km/h (1 Bft)
26.12.2011 15:30 8,6 C 11,0 C 8,4 C 8,9 C 8,9 C 0,3 C 82 % 85 % 8 % 1035,8 hPa 0,0 l/m 2,3 km/h (1 Bft) W-SW 247 0 min 0,0 UV-I 5,7 C 8,9 C 3,2 km/h (1 Bft)
26.12.2011 15:35 8,6 C 11,0 C 8,4 C 8,8 C 8,8 C 0,2 C 82 % 85 % 5 % 1035,8 hPa 0,0 l/m 3,1 km/h (1 Bft) W 270 0 min 0,0 UV-I 5,7 C 8,8 C 2,9 km/h (1 Bft)
26.12.2011 15:40 8,7 C 11,0 C 8,4 C 8,8 C 8,8 C 0,1 C 83 % 85 % 3 % 1035,3 hPa 0,0 l/m 3,7 km/h (1 Bft) W-SW 247 0 min 0,0 UV-I 6,0 C 8,8 C 6,9 km/h (2 Bft)
26.12.2011 15:47 8,6 C 11,0 C 8,4 C 8,8 C 8,8 C 0,2 C 82 % 85 % 5 % 1035,3 hPa 0,0 l/m 3,9 km/h (1 Bft) W 270 0 min 0,0 UV-I 5,7 C 8,8 C 5,8 km/h (2 Bft)
26.12.2011 15:48 8,6 C 11,0 C 8,4 C 8,8 C 8,8 C 0,2 C 82 % 85 % 5 % 1035,3 hPa 0,0 l/m 3,9 km/h (1 Bft) W 270 0 min 0,0 UV-I 5,7 C 8,8 C 5,8 km/h (2 Bft)
26.12.2011 15:49 8,5 C 11,0 C 8,3 C 8,8 C 8,8 C 0,3 C 82 % 85 % 8 % 1035,3 hPa 0,0 l/m 3,4 km/h (1 Bft) W-SW 247 1 min 0,0 UV-I 5,6 C 8,8 C 4,8 km/h (1 Bft)
26.12.2011 15:50 8,5 C 11,0 C 8,3 C 8,8 C 8,8 C 0,3 C 82 % 85 % 8 % 1035,3 hPa 0,0 l/m 3,4 km/h (1 Bft) W-SW 247 1 min 0,0 UV-I 5,6 C 8,8 C 4,8 km/h (1 Bft)
26.12.2011 15:51 8,5 C 11,0 C 8,3 C 8,8 C 8,8 C 0,3 C 82 % 85 % 8 % 1035,3 hPa 0,0 l/m 3,4 km/h (1 Bft) W-SW 247 1 min 0,0 UV-I 5,6 C 8,8 C 4,8 km/h (1 Bft)
26.12.2011 15:54 8,5 C 11,0 C 8,3 C 8,8 C 8,8 C 0,3 C 82 % 85 % 0 % 1035,3 hPa 0,0 l/m 3,5 km/h (1 Bft) SO 135 0 min 0,0 UV-I 5,6 C 8,8 C 3,5 km/h (1 Bft)
26.12.2011 15:59 8,5 C 11,0 C 8,3 C 8,7 C 8,7 C 0,2 C 82 % 85 % 0 % 1035,3 hPa 0,0 l/m 4,0 km/h (1 Bft) W-SW 247 0 min 0,0 UV-I 5,6 C 8,7 C 5,6 km/h (1 Bft)
26.12.2011 16:04 8,5 C 11,0 C 8,3 C 8,4 C 8,3 C 0,0 C 82 % 86 % 0 % 1035,3 hPa 0,0 l/m 5,0 km/h (1 Bft) W-SW 247 0 min 0,0 UV-I 5,6 C 7,8 C 15,4 km/h (3 Bft)
26.12.2011 16:09 8,5 C 11,0 C 8,3 C 8,4 C 8,2 C 0,0 C 82 % 85 % 0 % 1035,3 hPa 0,0 l/m 5,5 km/h (1 Bft) S-SW 202 0 min 0,0 UV-I 5,6 C 7,6 C 8,5 km/h (2 Bft)
26.12.2011 16:13 8,5 C 11,0 C 8,3 C 8,4 C 8,2 C 0,0 C 82 % 85 % 0 % 1035,3 hPa 0,0 l/m 5,5 km/h (1 Bft) S-SW 202 0 min 0,0 UV-I 5,6 C 7,6 C 8,5 km/h (2 Bft)
26.12.2011 16:20 8,5 C 11,0 C 8,2 C 8,3 C 8,0 C 0,0 C 82 % 86 % 0 % 1035,3 hPa 0,0 l/m 6,0 km/h (2 Bft) W-SW 247 0 min 0,0 UV-I 5,6 C 7,2 C 7,4 km/h (2 Bft)
26.12.2011 16:25 8,5 C 11,0 C 8,1 C 8,3 C 7,8 C 0,0 C 82 % 86 % 0 % 1035,3 hPa 0,0 l/m 6,8 km/h (2 Bft) W-SW 247 0 min 0,0 UV-I 5,6 C 6,7 C 6,1 km/h (2 Bft)
26.12.2011 16:30 8,5 C 11,1 C 8,2 C 8,2 C 7,7 C 0,0 C 82 % 86 % 0 % 1035,3 hPa 0,0 l/m 7,1 km/h (2 Bft) SW 225 0 min 0,0 UV-I 5,6 C 6,5 C 7,1 km/h (2 Bft)
26.12.2011 16:35 8,4 C 11,1 C 8,2 C 8,3 C 7,5 C 0,0 C 82 % 86 % 0 % 1035,3 hPa 0,0 l/m 7,9 km/h (2 Bft) SW 225 0 min 0,0 UV-I 5,5 C 6,1 C 9,5 km/h (2 Bft)
26.12.2011 16:40 8,5 C 11,1 C 8,1 C 8,3 C 7,4 C 0,0 C 82 % 86 % 0 % 1036,1 hPa 0,0 l/m 8,2 km/h (2 Bft) W 270 0 min 0,0 UV-I 5,6 C 5,9 C 8,4 km/h (2 Bft)
26.12.2011 16:45 8,4 C 11,1 C 8,1 C 8,1 C 7,6 C 0,0 C 83 % 86 % 0 % 1036,1 hPa 0,0 l/m 7,6 km/h (2 Bft) W-SW 247 0 min 0,0 UV-I 5,7 C 6,3 C 9,5 km/h (2 Bft)
26.12.2011 16:50 8,4 C 11,1 C 8,0 C 8,1 C 7,6 C 0,0 C 83 % 86 % 0 % 1036,1 hPa 0,0 l/m 6,9 km/h (2 Bft) SW 225 0 min 0,0 UV-I 5,7 C 6,5 C 10,5 km/h (2 Bft)
26.12.2011 16:55 8,4 C 11,1 C 8,0 C 8,2 C 7,8 C 0,0 C 83 % 86 % 0 % 1036,1 hPa 0,0 l/m 6,3 km/h (2 Bft) W-SW 247 0 min 0,0 UV-I 5,7 C 6,9 C 6,6 km/h (2 Bft)
26.12.2011 17:00 8,4 C 11,1 C 8,0 C 8,2 C 7,9 C 0,0 C 83 % 86 % 0 % 1036,1 hPa 0,0 l/m 6,0 km/h (2 Bft) SW 225 0 min 0,0 UV-I 5,7 C 7,1 C 9,0 km/h (2 Bft)
26.12.2011 17:14 8,5 C 11,1 C 8,0 C 8,2 C 7,6 C 0,0 C 83 % 86 % 0 % 1036,1 hPa 0,0 l/m 6,9 km/h (2 Bft) W-SW 247 0 min 0,0 UV-I 5,8 C 6,5 C 6,9 km/h (2 Bft)
26.12.2011 17:20 8,5 C 11,1 C 8,0 C 8,2 C 7,7 C 0,0 C 83 % 86 % 0 % 1036,1 hPa 0,0 l/m 6,6 km/h (2 Bft) SW 225 0 min 0,0 UV-I 5,8 C 6,7 C 5,1 km/h (1 Bft)
26.12.2011 17:25 8,4 C 11,1 C 8,0 C 8,2 C 7,8 C 0,0 C 83 % 86 % 0 % 1036,1 hPa 0,0 l/m 5,8 km/h (2 Bft) O-NO 67 0 min 0,0 UV-I 5,7 C 7,0 C 12,4 km/h (3 Bft)
26.12.2011 17:30 8,4 C 11,1 C 8,0 C 8,2 C 7,9 C 0,0 C 83 % 86 % 0 % 1036,1 hPa 0,0 l/m 5,3 km/h (1 Bft) S 180 0 min 0,0 UV-I 5,7 C 7,3 C 5,6 km/h (1 Bft)
26.12.2011 17:35 8,4 C 11,1 C 8,0 C 8,4 C 8,3 C 0,0 C 83 % 86 % 0 % 1036,1 hPa 0,0 l/m 4,3 km/h (1 Bft) W-NW 292 0 min 0,0 UV-I 5,7 C 8,3 C 2,7 km/h (1 Bft)
26.12.2011 17:40 8,3 C 11,1 C 8,0 C 8,5 C 8,5 C 0,2 C 83 % 86 % 0 % 1036,1 hPa 0,0 l/m 3,4 km/h (1 Bft) S 180 0 min 0,0 UV-I 5,6 C 8,5 C 3,9 km/h (1 Bft)
26.12.2011 17:45 8,3 C 11,1 C 8,0 C 8,4 C 8,4 C 0,1 C 83 % 86 % 0 % 1036,1 hPa 0,0 l/m 2,9 km/h (1 Bft) SW 225 0 min 0,0 UV-I 5,6 C 8,4 C 5,8 km/h (2 Bft)
26.12.2011 17:50 8,3 C 11,1 C 8,1 C 8,4 C 8,4 C 0,1 C 83 % 86 % 0 % 1036,1 hPa 0,0 l/m 3,5 km/h (1 Bft) S-SO 157 0 min 0,0 UV-I 5,6 C 8,4 C 4,0 km/h (1 Bft)
26.12.2011 17:55 8,3 C 11,1 C 8,0 C 8,4 C 8,4 C 0,1 C 84 % 86 % 0 % 1036,1 hPa 0,0 l/m 3,7 km/h (1 Bft) O-SO 112 0 min 0,0 UV-I 5,8 C 8,4 C 2,1 km/h (1 Bft)
26.12.2011 18:00 8,3 C 11,1 C 8,0 C 8,4 C 8,4 C 0,1 C 83 % 86 % 0 % 1036,1 hPa 0,0 l/m 3,7 km/h (1 Bft) W-NW 292 0 min 0,0 UV-I 5,6 C 8,4 C 5,3 km/h (1 Bft)
26.12.2011 18:15 8,1 C 11,2 C 7,9 C 8,3 C 8,3 C 0,2 C 83 % 86 % 0 % 1036,1 hPa 0,0 l/m 3,2 km/h (1 Bft) W 270 0 min 0,0 UV-I 5,4 C 8,3 C 2,9 km/h (1 Bft)
26.12.2011 18:18 8,1 C 11,2 C 7,9 C 8,3 C 8,3 C 0,2 C 83 % 86 % 0 % 1036,1 hPa 0,0 l/m 3,2 km/h (1 Bft) W 270 0 min 0,0 UV-I 5,4 C 8,3 C 2,9 km/h (1 Bft)
26.12.2011 18:28 8,1 C 11,2 C 7,8 C 8,3 C 8,3 C 0,2 C 83 % 86 % 0 % 1036,1 hPa 0,0 l/m 2,4 km/h (1 Bft) N 360 0 min 0,0 UV-I 5,4 C 8,3 C 1,8 km/h (1 Bft)
26.12.2011 18:29 8,1 C 11,2 C 7,9 C 8,3 C 8,3 C 0,2 C 83 % 86 % 0 % 1036,1 hPa 0,0 l/m 2,7 km/h (1 Bft) W 270 0 min 0,0 UV-I 5,4 C 8,3 C 2,4 km/h (1 Bft)
26.12.2011 18:30 8,1 C 11,2 C 7,9 C 8,3 C 8,3 C 0,2 C 83 % 86 % 0 % 1036,1 hPa 0,0 l/m 2,7 km/h (1 Bft) W 270 0 min 0,0 UV-I 5,4 C 8,3 C 2,4 km/h (1 Bft)
26.12.2011 18:31 8,1 C 11,2 C 7,9 C 8,3 C 8,3 C 0,2 C 83 % 86 % 0 % 1036,1 hPa 0,0 l/m 2,7 km/h (1 Bft) W 270 0 min 0,0 UV-I 5,4 C 8,3 C 2,4 km/h (1 Bft)
26.12.2011 18:32 8,1 C 11,2 C 7,9 C 8,3 C 8,3 C 0,2 C 83 % 86 % 0 % 1036,1 hPa 0,0 l/m 2,7 km/h (1 Bft) W 270 0 min 0,0 UV-I 5,4 C 8,3 C 2,4 km/h (1 Bft)
26.12.2011 18:34 8,1 C 11,2 C 7,8 C 8,3 C 8,3 C 0,2 C 83 % 86 % 0 % 1036,1 hPa 0,0 l/m 2,4 km/h (1 Bft) S 180 0 min 0,0 UV-I 5,4 C 8,3 C 3,9 km/h (1 Bft)
26.12.2011 18:36 8,1 C 11,2 C 7,8 C 8,3 C 8,3 C 0,2 C 83 % 86 % 0 % 1036,1 hPa 0,0 l/m 2,4 km/h (1 Bft) S 180 0 min 0,0 UV-I 5,4 C 8,3 C 3,9 km/h (1 Bft)
26.12.2011 18:40 8,1 C 11,2 C 7,9 C 8,2 C 8,2 C 0,1 C 83 % 86 % 0 % 1036,1 hPa 0,0 l/m 2,4 km/h (1 Bft) W-SW 247 0 min 0,0 UV-I 5,4 C 8,2 C 4,5 km/h (1 Bft)
26.12.2011 18:45 8,0 C 11,2 C 7,8 C 8,2 C 8,2 C 0,2 C 84 % 87 % 0 % 1036,1 hPa 0,0 l/m 2,6 km/h (1 Bft) W-SW 247 0 min 0,0 UV-I 5,5 C 8,2 C 2,9 km/h (1 Bft)
26.12.2011 18:50 8,0 C 11,2 C 7,8 C 8,1 C 8,1 C 0,1 C 84 % 87 % 0 % 1036,1 hPa 0,0 l/m 2,9 km/h (1 Bft) O-SO 112 0 min 0,0 UV-I 5,5 C 8,1 C 1,9 km/h (1 Bft)
26.12.2011 18:55 7,9 C 11,2 C 7,7 C 8,0 C 8,0 C 0,1 C 84 % 87 % 0 % 1036,1 hPa 0,0 l/m 3,1 km/h (1 Bft) O-SO 112 0 min 0,0 UV-I 5,4 C 8,0 C 2,4 km/h (1 Bft)
26.12.2011 19:00 7,9 C 11,2 C 7,6 C 8,0 C 8,0 C 0,1 C 84 % 87 % 0 % 1036,4 hPa 0,0 l/m 3,2 km/h (1 Bft) O-NO 67 0 min 0,0 UV-I 5,4 C 8,0 C 2,4 km/h (1 Bft)
26.12.2011 19:10 7,8 C 11,3 C 7,6 C 7,7 C 7,6 C 0,0 C 84 % 87 % 0 % 1036,4 hPa 0,0 l/m 4,8 km/h (1 Bft) N 0 0 min 0,0 UV-I 5,3 C 7,1 C 8,5 km/h (2 Bft)
26.12.2011 19:20 7,8 C 11,3 C 7,6 C 7,7 C 7,6 C 0,0 C 85 % 88 % 0 % 1036,4 hPa 0,0 l/m 4,3 km/h (1 Bft) W-SW 247 0 min 0,0 UV-I 5,4 C 7,6 C 3,5 km/h (1 Bft)
26.12.2011 19:25 7,7 C 11,3 C 7,6 C 7,9 C 7,9 C 0,2 C 85 % 88 % 0 % 1036,4 hPa 0,0 l/m 3,2 km/h (1 Bft) W 270 0 min 0,0 UV-I 5,3 C 7,9 C 8,5 km/h (2 Bft)
26.12.2011 19:30 7,7 C 11,3 C 7,5 C 7,7 C 7,7 C 0,0 C 85 % 88 % 0 % 1036,4 hPa 0,0 l/m 3,7 km/h (1 Bft) S 180 0 min 0,0 UV-I 5,3 C 7,7 C 4,5 km/h (1 Bft)
26.12.2011 19:35 7,7 C 11,3 C 7,5 C 7,6 C 7,5 C 0,0 C 86 % 88 % 0 % 1036,4 hPa 0,0 l/m 4,2 km/h (1 Bft) O 90 0 min 0,0 UV-I 5,5 C 7,5 C 5,5 km/h (1 Bft)
26.12.2011 19:40 7,6 C 11,3 C 7,5 C 7,5 C 7,4 C 0,0 C 86 % 88 % 0 % 1036,4 hPa 0,0 l/m 4,3 km/h (1 Bft) SO 135 0 min 0,0 UV-I 5,4 C 7,4 C 8,4 km/h (2 Bft)
26.12.2011 19:45 7,7 C 11,3 C 7,4 C 7,7 C 7,6 C 0,0 C 86 % 88 % 0 % 1036,4 hPa 0,0 l/m 4,0 km/h (1 Bft) N-NW 337 0 min 0,0 UV-I 5,5 C 7,6 C 5,5 km/h (1 Bft)
26.12.2011 19:50 7,6 C 11,3 C 7,5 C 7,5 C 7,3 C 0,0 C 86 % 88 % 0 % 1036,4 hPa 0,0 l/m 4,8 km/h (1 Bft) W 270 0 min 0,0 UV-I 5,4 C 6,8 C 6,9 km/h (2 Bft)
26.12.2011 19:55 7,6 C 11,3 C 7,5 C 7,4 C 7,1 C 0,0 C 86 % 88 % 0 % 1036,4 hPa 0,0 l/m 5,5 km/h (1 Bft) S 180 0 min 0,0 UV-I 5,4 C 6,3 C 5,0 km/h (1 Bft)
26.12.2011 20:00 7,6 C 11,3 C 7,5 C 7,5 C 7,3 C 0,0 C 86 % 88 % 0 % 1036,4 hPa 0,0 l/m 4,8 km/h (1 Bft) O 90 0 min 0,0 UV-I 5,4 C 6,8 C 2,7 km/h (1 Bft)
26.12.2011 20:10 7,6 C 11,3 C 7,5 C 7,5 C 7,4 C 0,0 C 86 % 88 % 0 % 1036,4 hPa 0,0 l/m 4,2 km/h (1 Bft) N 0 0 min 0,0 UV-I 5,4 C 7,4 C 3,7 km/h (1 Bft)
26.12.2011 20:20 7,5 C 11,3 C 7,5 C 7,7 C 7,7 C 0,2 C 86 % 88 % 0 % 1036,1 hPa 0,0 l/m 3,7 km/h (1 Bft) O-SO 112 0 min 0,0 UV-I 5,3 C 7,7 C 6,9 km/h (2 Bft)
26.12.2011 20:25 7,5 C 11,3 C 7,5 C 7,6 C 7,6 C 0,1 C 86 % 88 % 0 % 1036,1 hPa 0,0 l/m 3,9 km/h (1 Bft) SW 225 0 min 0,0 UV-I 5,3 C 7,6 C 7,7 km/h (2 Bft)
26.12.2011 20:30 7,5 C 11,3 C 7,4 C 7,7 C 7,7 C 0,2 C 86 % 88 % 0 % 1036,1 hPa 0,0 l/m 3,5 km/h (1 Bft) SO 135 0 min 0,0 UV-I 5,3 C 7,7 C 5,1 km/h (1 Bft)
26.12.2011 20:35 7,5 C 11,3 C 7,4 C 7,7 C 7,7 C 0,2 C 86 % 88 % 0 % 1036,1 hPa 0,0 l/m 3,7 km/h (1 Bft) S-SO 157 0 min 0,0 UV-I 5,3 C 7,7 C 5,1 km/h (1 Bft)
26.12.2011 20:40 7,5 C 11,4 C 7,4 C 7,6 C 7,6 C 0,1 C 86 % 88 % 0 % 1036,3 hPa 0,0 l/m 3,9 km/h (1 Bft) SO 135 0 min 0,0 UV-I 5,3 C 7,6 C 5,0 km/h (1 Bft)
26.12.2011 20:45 7,5 C 11,4 C 7,4 C 7,7 C 7,7 C 0,2 C 86 % 88 % 0 % 1036,3 hPa 0,0 l/m 3,7 km/h (1 Bft) SO 135 0 min 0,0 UV-I 5,3 C 7,7 C 11,3 km/h (2 Bft)
26.12.2011 20:50 7,5 C 11,4 C 7,3 C 7,7 C 7,7 C 0,2 C 86 % 88 % 0 % 1036,3 hPa 0,0 l/m 3,4 km/h (1 Bft) W-NW 292 0 min 0,0 UV-I 5,3 C 7,7 C 2,6 km/h (1 Bft)
26.12.2011 20:55 7,5 C 11,4 C 7,3 C 7,7 C 7,7 C 0,2 C 86 % 88 % 0 % 1036,3 hPa 0,0 l/m 3,4 km/h (1 Bft) W 270 0 min 0,0 UV-I 5,3 C 7,7 C 2,3 km/h (1 Bft)
26.12.2011 21:00 7,5 C 11,4 C 7,4 C 7,6 C 7,6 C 0,1 C 86 % 88 % 0 % 1036,3 hPa 0,0 l/m 3,9 km/h (1 Bft) N-NW 337 0 min 0,0 UV-I 5,3 C 7,6 C 7,1 km/h (2 Bft)
26.12.2011 21:14 7,5 C 11,4 C 7,3 C 7,6 C 7,6 C 0,1 C 86 % 89 % 0 % 1036,3 hPa 0,0 l/m 3,9 km/h (1 Bft) O-SO 112 0 min 0,0 UV-I 5,3 C 7,6 C 4,8 km/h (1 Bft)
26.12.2011 21:20 7,5 C 11,4 C 7,3 C 7,5 C 7,4 C 0,0 C 86 % 89 % 0 % 1036,3 hPa 0,0 l/m 4,3 km/h (1 Bft) SW 225 0 min 0,0 UV-I 5,3 C 7,4 C 10,8 km/h (2 Bft)
26.12.2011 21:25 7,5 C 11,4 C 7,3 C 7,5 C 7,4 C 0,0 C 87 % 89 % 0 % 1036,3 hPa 0,0 l/m 4,3 km/h (1 Bft) SO 135 0 min 0,0 UV-I 5,5 C 7,4 C 2,6 km/h (1 Bft)
26.12.2011 21:30 7,4 C 11,4 C 7,3 C 7,4 C 7,4 C 0,0 C 87 % 89 % 0 % 1036,3 hPa 0,0 l/m 4,3 km/h (1 Bft) W-SW 247 0 min 0,0 UV-I 5,4 C 7,4 C 5,0 km/h (1 Bft)
26.12.2011 21:35 7,4 C 11,4 C 7,3 C 7,5 C 7,5 C 0,1 C 87 % 89 % 0 % 1036,3 hPa 0,0 l/m 4,0 km/h (1 Bft) S 180 0 min 0,0 UV-I 5,4 C 7,5 C 5,8 km/h (2 Bft)
26.12.2011 21:40 7,5 C 11,4 C 7,3 C 7,4 C 7,3 C 0,0 C 87 % 89 % 0 % 1036,1 hPa 0,0 l/m 4,7 km/h (1 Bft) SW 225 0 min 0,0 UV-I 5,5 C 6,8 C 9,2 km/h (2 Bft)
26.12.2011 21:45 7,4 C 11,5 C 7,3 C 7,3 C 7,1 C 0,0 C 87 % 89 % 0 % 1036,1 hPa 0,0 l/m 5,1 km/h (1 Bft) SW 225 0 min 0,0 UV-I 5,4 C 6,4 C 10,0 km/h (2 Bft)
26.12.2011 21:50 7,5 C 11,5 C 7,3 C 7,4 C 7,3 C 0,0 C 87 % 89 % 0 % 1036,1 hPa 0,0 l/m 4,5 km/h (1 Bft) SO 135 0 min 0,0 UV-I 5,5 C 7,3 C 9,0 km/h (2 Bft)
26.12.2011 21:55 7,4 C 11,5 C 7,3 C 7,4 C 7,3 C 0,0 C 87 % 89 % 0 % 1036,1 hPa 0,0 l/m 4,5 km/h (1 Bft) O-NO 67 0 min 0,0 UV-I 5,4 C 7,3 C 7,6 km/h (2 Bft)
26.12.2011 22:00 7,4 C 11,5 C 7,3 C 7,4 C 7,3 C 0,0 C 87 % 89 % 0 % 1036,3 hPa 0,0 l/m 4,2 km/h (1 Bft) W-SW 247 0 min 0,0 UV-I 5,4 C 7,3 C 6,9 km/h (2 Bft)
26.12.2011 22:10 7,5 C 11,5 C 7,3 C 7,6 C 7,6 C 0,1 C 87 % 89 % 0 % 1036,3 hPa 0,0 l/m 3,7 km/h (1 Bft) N 0 0 min 0,0 UV-I 5,5 C 7,6 C 3,4 km/h (1 Bft)
26.12.2011 22:20 7,3 C 11,5 C 7,2 C 7,5 C 7,5 C 0,2 C 87 % 89 % 0 % 1036,3 hPa 0,0 l/m 3,4 km/h (1 Bft) W-SW 247 0 min 0,0 UV-I 5,3 C 7,5 C 3,2 km/h (1 Bft)
26.12.2011 22:25 7,3 C 11,5 C 7,2 C 7,6 C 7,6 C 0,3 C 87 % 90 % 0 % 1036,3 hPa 0,0 l/m 3,2 km/h (1 Bft) W-NW 292 0 min 0,0 UV-I 5,3 C 7,6 C 4,3 km/h (1 Bft)
26.12.2011 22:30 7,3 C 11,5 C 7,3 C 7,6 C 7,6 C 0,3 C 87 % 89 % 0 % 1036,3 hPa 0,0 l/m 3,2 km/h (1 Bft) S-SO 157 0 min 0,0 UV-I 5,3 C 7,6 C 1,9 km/h (1 Bft)
26.12.2011 22:35 7,3 C 11,5 C 7,3 C 7,6 C 7,6 C 0,3 C 87 % 89 % 0 % 1036,3 hPa 0,0 l/m 2,6 km/h (1 Bft) N 360 0 min 0,0 UV-I 5,3 C 7,6 C 1,8 km/h (1 Bft)
26.12.2011 22:40 7,4 C 11,5 C 7,2 C 7,6 C 7,6 C 0,2 C 87 % 89 % 0 % 1036,3 hPa 0,0 l/m 2,3 km/h (1 Bft) O-SO 112 0 min 0,0 UV-I 5,4 C 7,6 C 0,0 km/h (0 Bft)
26.12.2011 22:45 7,4 C 11,5 C 7,2 C 7,6 C 7,6 C 0,2 C 87 % 89 % 0 % 1036,3 hPa 0,0 l/m 2,3 km/h (1 Bft) W 270 0 min 0,0 UV-I 5,4 C 7,6 C 4,7 km/h (1 Bft)
26.12.2011 22:50 7,4 C 11,5 C 7,2 C 7,6 C 7,6 C 0,2 C 87 % 89 % 0 % 1036,3 hPa 0,0 l/m 2,6 km/h (1 Bft) NW 315 0 min 0,0 UV-I 5,4 C 7,6 C 5,3 km/h (1 Bft)
26.12.2011 22:55 7,3 C 11,5 C 7,2 C 7,6 C 7,6 C 0,3 C 87 % 89 % 0 % 1036,3 hPa 0,0 l/m 2,4 km/h (1 Bft) W 270 0 min 0,0 UV-I 5,3 C 7,6 C 5,0 km/h (1 Bft)
26.12.2011 23:00 7,3 C 11,5 C 7,2 C 7,6 C 7,6 C 0,3 C 87 % 89 % 0 % 1036,2 hPa 0,0 l/m 2,4 km/h (1 Bft) W-SW 247 0 min 0,0 UV-I 5,3 C 7,6 C 4,5 km/h (1 Bft)
26.12.2011 23:04 7,4 C 11,5 C 7,3 C 7,6 C 7,6 C 0,2 C 87 % 89 % 0 % 1036,2 hPa 0,0 l/m 2,4 km/h (1 Bft) W-SW 247 0 min 0,0 UV-I 5,4 C 7,6 C 2,6 km/h (1 Bft)
26.12.2011 23:09 7,4 C 11,5 C 7,2 C 7,6 C 7,6 C 0,2 C 87 % 89 % 0 % 1036,2 hPa 0,0 l/m 1,8 km/h (1 Bft) SW 225 0 min 0,0 UV-I 5,4 C 7,6 C 1,9 km/h (1 Bft)
26.12.2011 23:14 7,4 C 11,5 C 7,2 C 7,6 C 7,6 C 0,2 C 87 % 89 % 0 % 1036,2 hPa 0,0 l/m 1,3 km/h (1 Bft) S-SO 157 0 min 0,0 UV-I 5,4 C 7,6 C 4,2 km/h (1 Bft)
26.12.2011 23:20 7,5 C 11,5 C 7,2 C 7,6 C 7,6 C 0,1 C 87 % 89 % 0 % 1036,0 hPa 0,0 l/m 1,4 km/h (1 Bft) N-NW 337 0 min 0,0 UV-I 5,5 C 7,6 C 3,4 km/h (1 Bft)
26.12.2011 23:25 7,4 C 11,5 C 7,2 C 7,6 C 7,6 C 0,2 C 87 % 89 % 0 % 1036,0 hPa 0,0 l/m 2,1 km/h (1 Bft) NW 315 0 min 0,0 UV-I 5,4 C 7,6 C 3,2 km/h (1 Bft)
26.12.2011 23:30 7,5 C 11,5 C 7,3 C 7,6 C 7,6 C 0,1 C 87 % 89 % 0 % 1036,0 hPa 0,0 l/m 2,6 km/h (1 Bft) S-SO 157 0 min 0,0 UV-I 5,5 C 7,6 C 4,2 km/h (1 Bft)
26.12.2011 23:35 7,5 C 11,5 C 7,2 C 7,6 C 7,6 C 0,1 C 87 % 89 % 0 % 1036,0 hPa 0,0 l/m 2,6 km/h (1 Bft) W-SW 247 0 min 0,0 UV-I 5,5 C 7,6 C 0,0 km/h (0 Bft)
26.12.2011 23:40 7,5 C 11,5 C 7,2 C 7,6 C 7,6 C 0,1 C 87 % 89 % 0 % 1035,8 hPa 0,0 l/m 2,1 km/h (1 Bft) SO 135 0 min 0,0 UV-I 5,5 C 7,6 C 3,1 km/h (1 Bft)
26.12.2011 23:45 7,5 C 11,5 C 7,2 C 7,6 C 7,6 C 0,1 C 87 % 89 % 0 % 1035,8 hPa 0,0 l/m 2,3 km/h (1 Bft) S-SO 157 0 min 0,0 UV-I 5,5 C 7,6 C 3,9 km/h (1 Bft)
26.12.2011 23:50 7,5 C 11,5 C 7,2 C 7,6 C 7,6 C 0,1 C 87 % 89 % 0 % 1035,8 hPa 0,0 l/m 2,1 km/h (1 Bft) S-SW 202 0 min 0,0 UV-I 5,5 C 7,6 C 3,9 km/h (1 Bft)
26.12.2011 23:55 7,5 C 11,4 C 7,3 C 7,6 C 7,6 C 0,1 C 87 % 89 % 0 % 1035,8 hPa 0,0 l/m 2,4 km/h (1 Bft) S 180 0 min 0,0 UV-I 5,5 C 7,6 C 2,9 km/h (1 Bft)
_ Min-Zeit 00:00 00:04 00:00 00:19 00:14 00:00 11:30 12:29 00:00 01:20 - 23:14 - - - 00:00 00:00 00:19 22:40
Minimum _ 5,8 C 10,0 C 5,7 C 5,5 C 4,4 C 0,0 C 81 % 84 % 0 % 1033,0 hPa - 1,3 km/h (1 Bft) - - - 0,0 UV-I 3,3 C 2,2 C 0,0 km/h (0 Bft)
_ Max-Zeit 14:34 21:45 14:15 13:45 13:45 13:45 21:25 22:25 13:45 19:00 00:00 04:00 - - 15:49 09:45 15:25 15:20 04:10
Maximum _ 8,8 C 11,5 C 8,7 C 9,1 C 9,1 C 0,4 C 87 % 90 % 11 % 1036,4 hPa 0,0 l/m 10,3 km/h
W-NW (2 Bft)
- - 1 min 1,7 UV-I 6,0 C 8,9 C 24,9 km/h
N (4 Bft)
Durchschnitt _ 7,5 C 10,7 C 7,2 C 7,3 C 6,9 C 0,0 C 83 % 86 % 0 % 1034,9 hPa #0,0 l/m 5,9 km/h (2 Bft) W-SW - #3 min. 1,7 UV-I 4,8 C 6,0 C 8,4 km/h (2 Bft)
2011 www.wetterstation-wechselburg.de